Weather History for Rochelle, IL

Change the Weather History Date:

Monday, March 25, 2013

  Actual Average (KRFD) Record (KRFD)
Temperature  
Mean Temperature 30 °F 41 °F  
Max Temperature 34 °F 51 °F 79 °F (2007)
Min Temperature 27 °F 31 °F 5 °F (1960)
Degree Days  
Heating Degree Days 34 24  
Month to date heating degree days 727  
Since 1 July heating degree days 5729  
Cooling Degree Days 0 0  
Month to date cooling degree days 0  
Year to date cooling degree days 0  
Moisture  
Dew Point 26 °F    
Average Humidity 80    
Maximum Humidity 85    
Minimum Humidity 73    
Precipitation  
Precipitation 0.00 in 0.08 in 2.01 in (1921)
Month to date precipitation 1.77  
Year to date precipitation 4.55  
Snow  
Snow 0.00 in 0.10 in 6.00 in (1933)
Month to date snowfall 4.2  
Since 1 July snowfall 35.2  
Snow Depth -    
Sea Level Pressure  
Sea Level Pressure 29.91 in    
Wind  
Wind Speed 17 mph (NNW)    
Max Wind Speed 22 mph    
Max Gust Speed 26 mph    
Visibility 10 miles    
Events Rain    
T = Trace of Precipitation, MM = Missing Value Source: NWS Daily Summary

Daily Weather History Graph

Daily Weather History Graph

Search for Another Location

Airport:

Trip Planner

Search our weather history database for the weather conditions in past years. The results will help you decide how hot, cold, wet, or windy it might be!

Date:

Astronomy

Mar. 25, 2013 Rise Set
Actual Time 6:50 AM CDT 7:14 PM CDT
Civil Twilight 6:22 AM CDT 7:42 PM CDT
Nautical Twilight 5:49 AM CDT 8:15 PM CDT
Astronomical Twilight 5:16 AM CDT 8:49 PM CDT
Moon 5:45 PM CDT (3/25) 5:35 AM CDT (3/25)
Length of Visible Light 13h 19m
Length of Day
12h 23m
Waxing Gibbous, 96% of the Moon is Illuminated
Mar 25
Waxing Gibbous
Mar 27
Full
Apr 2
Last Quarter
Apr 10
New
Apr 18
First Quarter

Hourly Weather History & Observations

Time (CDT) Temp. Windchill Dew Point Humidity Pressure Visibility Wind Dir Wind Speed Gust Speed Precip Events Conditions
12:15 AM 30.0 °F 17.9 °F 23.5 °F 77% 29.76 in 10.0 mi North 18.4 mph 25.3 mph N/A   Overcast
12:35 AM 29.7 °F 17.4 °F 23.9 °F 79% 29.77 in 10.0 mi North 18.4 mph 26.5 mph N/A Rain Light Freezing Rain
12:55 AM 29.7 °F 18.2 °F 23.2 °F 77% 29.77 in 10.0 mi North 16.1 mph 26.5 mph N/A   Light Freezing Rain
1:15 AM 29.7 °F 17.8 °F 23.5 °F 78% 29.77 in 10.0 mi North 17.3 mph 23.0 mph N/A   Light Freezing Rain
1:35 AM 29.3 °F 17.3 °F 23.0 °F 77% 29.77 in 10.0 mi North 17.3 mph 20.7 mph N/A   Overcast
1:55 AM 29.3 °F 17.7 °F 23.4 °F 78% 29.77 in 10.0 mi North 16.1 mph - N/A   Overcast
2:15 AM 28.9 °F 16.9 °F 23.5 °F 80% 29.77 in 10.0 mi North 17.3 mph 23.0 mph N/A   Overcast
2:35 AM 28.8 °F 16.6 °F 23.4 °F 80% 29.77 in 10.0 mi North 17.3 mph 26.5 mph N/A   Mostly Cloudy
2:55 AM 28.4 °F 15.8 °F 23.4 °F 81% 29.77 in 10.0 mi North 18.4 mph 23.0 mph N/A   Overcast
3:35 AM 28.4 °F 16.2 °F 23.0 °F 80% 29.76 in 10.0 mi North 17.3 mph 23.0 mph N/A   Overcast
3:55 AM 28.0 °F 15.7 °F 22.8 °F 81% 29.76 in 10.0 mi North 17.3 mph - N/A   Overcast
4:15 AM 27.5 °F 14.6 °F 22.8 °F 83% 29.76 in 10.0 mi North 18.4 mph 23.0 mph N/A   Overcast
4:35 AM 27.5 °F 14.2 °F 22.5 °F 81% 29.76 in 10.0 mi North 19.6 mph 25.3 mph N/A   Overcast
4:55 AM 27.5 °F 15.9 °F 22.6 °F 82% 29.77 in 10.0 mi NNW 15.0 mph - N/A   Overcast
5:15 AM 27.5 °F 14.6 °F 22.6 °F 82% 29.77 in 10.0 mi NNW 18.4 mph - N/A   Overcast
5:35 AM 27.3 °F 14.8 °F 22.6 °F 83% 29.78 in 10.0 mi NNW 17.3 mph 23.0 mph N/A   Overcast
5:55 AM 27.1 °F 14.9 °F 22.1 °F 81% 29.78 in 10.0 mi NNW 16.1 mph - N/A   Overcast
6:15 AM 27.1 °F 14.1 °F 22.5 °F 83% 29.79 in 10.0 mi NNW 18.4 mph 23.0 mph N/A   Overcast
6:55 AM 27.3 °F 15.2 °F 22.8 °F 83% 29.80 in 10.0 mi North 16.1 mph 23.0 mph N/A   Overcast
7:15 AM 27.3 °F 14.4 °F 23.0 °F 84% 29.81 in 10.0 mi North 18.4 mph 21.9 mph N/A   Overcast
7:35 AM 27.5 °F 15.9 °F 23.0 °F 83% 29.81 in 10.0 mi North 15.0 mph - N/A   Overcast
7:55 AM 27.5 °F 15.0 °F 23.0 °F 83% 29.82 in 10.0 mi NNW 17.3 mph 23.0 mph N/A   Overcast
8:15 AM 27.9 °F 14.7 °F 23.4 °F 83% 29.83 in 10.0 mi North 19.6 mph 23.0 mph N/A   Overcast
8:35 AM 28.2 °F 15.9 °F 23.9 °F 84% 29.84 in 10.0 mi North 17.3 mph - N/A   Overcast
8:55 AM 28.2 °F 15.9 °F 23.9 °F 84% 29.85 in 10.0 mi NNW 17.3 mph - N/A   Overcast
9:15 AM 28.2 °F 15.2 °F 24.1 °F 84% 29.85 in 7.0 mi NNW 19.6 mph 25.3 mph N/A Rain Light Freezing Rain
9:35 AM 29.7 °F 17.4 °F 24.8 °F 82% 29.86 in 10.0 mi North 18.4 mph 26.5 mph N/A   Overcast
9:55 AM 29.7 °F 16.7 °F 25.2 °F 83% 29.87 in 10.0 mi NNW 20.7 mph - N/A   Overcast
10:15 AM 29.7 °F 18.2 °F 25.5 °F 85% 29.88 in 10.0 mi NNW 16.1 mph 26.5 mph N/A   Overcast
10:35 AM 30.0 °F 17.9 °F 25.7 °F 84% 29.89 in 10.0 mi North 18.4 mph - N/A   Overcast
10:55 AM 30.6 °F 18.2 °F 26.6 °F 85% 29.90 in 10.0 mi North 19.6 mph 25.3 mph N/A   Overcast
11:15 AM 31.8 °F 20.2 °F 27.5 °F 84% 29.90 in 10.0 mi NNW 18.4 mph 23.0 mph N/A   Overcast
11:35 AM 32.5 °F 21.5 °F 28.4 °F 85% 29.91 in 10.0 mi NNW 17.3 mph - N/A   Overcast
11:55 AM 33.3 °F 21.8 °F 28.4 °F 82% 29.91 in 10.0 mi North 19.6 mph - N/A   Mostly Cloudy
12:15 PM 33.3 °F 21.5 °F 28.4 °F 82% 29.91 in 10.0 mi NNW 20.7 mph 25.3 mph N/A   Overcast
12:35 PM 33.1 °F 21.5 °F 28.6 °F 84% 29.92 in 10.0 mi NNW 19.6 mph 23.0 mph N/A Rain Light Rain
12:55 PM 32.9 °F 21.6 °F 28.0 °F 82% 29.91 in 10.0 mi NNW 18.4 mph 24.2 mph N/A Rain Light Rain
1:15 PM 33.8 °F 22.5 °F 28.4 °F 81% 29.92 in 10.0 mi NNW 19.6 mph 26.5 mph N/A   Overcast
1:35 PM 34.0 °F 22.4 °F 28.8 °F 81% 29.92 in 10.0 mi NNW 20.7 mph 24.2 mph N/A   Overcast
1:55 PM 34.3 °F 23.9 °F 28.6 °F 79% 29.92 in 10.0 mi North 17.3 mph - N/A   Overcast
2:15 PM 34.5 °F 23.8 °F 28.0 °F 77% 29.93 in 10.0 mi NNW 18.4 mph - N/A   Overcast
2:35 PM 34.7 °F 23.1 °F 27.9 °F 76% 29.93 in 10.0 mi NNW 21.9 mph 25.3 mph N/A   Overcast
2:55 PM 34.7 °F 23.7 °F 27.7 °F 76% 29.94 in 10.0 mi NNW 19.6 mph 26.5 mph N/A   Overcast
3:15 PM 34.9 °F 24.2 °F 28.0 °F 76% 29.94 in 10.0 mi North 18.4 mph 25.3 mph N/A   Overcast
3:35 PM 34.9 °F 24.6 °F 27.7 °F 75% 29.95 in 10.0 mi North 17.3 mph 21.9 mph N/A   Overcast
3:55 PM 33.8 °F 22.5 °F 26.2 °F 74% 29.96 in 10.0 mi North 19.6 mph 25.3 mph N/A   Overcast
4:15 PM 33.4 °F 22.7 °F 26.8 °F 77% 29.97 in 10.0 mi North 17.3 mph 26.5 mph N/A   Overcast
4:35 PM 33.4 °F 21.4 °F 26.1 °F 74% 29.98 in 10.0 mi North 21.9 mph - N/A   Overcast
4:55 PM 33.8 °F 22.2 °F 26.1 °F 73% 29.99 in 10.0 mi North 20.7 mph 26.5 mph N/A   Overcast
5:15 PM 33.8 °F 22.8 °F 26.2 °F 74% 29.99 in 10.0 mi North 18.4 mph - N/A   Overcast
5:35 PM 33.1 °F 23.4 °F 26.2 °F 76% 30.01 in 10.0 mi North 13.8 mph - N/A   Overcast
5:55 PM 33.1 °F 23.4 °F 26.1 °F 75% 30.01 in 10.0 mi North 13.8 mph 18.4 mph N/A   Overcast
6:15 PM 32.9 °F 23.2 °F 26.4 °F 77% 30.02 in 10.0 mi North 13.8 mph - N/A   Overcast
6:35 PM 32.5 °F 23.2 °F 26.4 °F 78% 30.04 in 10.0 mi North 12.7 mph - N/A   Overcast
6:55 PM 32.4 °F 24.6 °F 26.8 °F 80% 30.04 in 10.0 mi NNW 9.2 mph - N/A   Overcast
7:15 PM 32.4 °F 26.0 °F 27.0 °F 80% 30.05 in 10.0 mi NNW 6.9 mph - N/A   Overcast
7:35 PM 32.5 °F 24.2 °F 26.6 °F 79% 30.06 in 10.0 mi NNW 10.4 mph - N/A   Overcast
7:55 PM 32.5 °F 26.2 °F 26.4 °F 78% 30.06 in 10.0 mi NNW 6.9 mph - N/A   Overcast
8:15 PM 32.4 °F 26.0 °F 26.6 °F 79% 30.07 in 10.0 mi NNW 6.9 mph - N/A   Overcast
8:35 PM 32.2 °F 25.8 °F 26.6 °F 80% 30.07 in 10.0 mi NW 6.9 mph - N/A   Overcast
8:55 PM 32.2 °F 26.7 °F 27.0 °F 81% 30.08 in 10.0 mi NW 5.8 mph - N/A   Overcast
9:15 PM 32.2 °F 26.7 °F 26.6 °F 80% 30.09 in 10.0 mi NW 5.8 mph - N/A   Overcast
9:35 PM 32.2 °F 26.7 °F 26.4 °F 79% 30.09 in 10.0 mi NW 5.8 mph - N/A   Overcast
9:55 PM 32.2 °F 26.7 °F 26.6 °F 80% 30.09 in 10.0 mi NW 5.8 mph - N/A   Overcast
10:15 PM 32.4 °F 26.0 °F 26.2 °F 78% 30.09 in 10.0 mi NW 6.9 mph - N/A   Overcast
10:35 PM 32.4 °F 26.0 °F 26.6 °F 79% 30.09 in 10.0 mi NW 6.9 mph - N/A   Overcast
10:55 PM 32.5 °F 25.5 °F 26.6 °F 79% 30.09 in 10.0 mi NW 8.1 mph - N/A   Overcast
11:15 PM 32.4 °F 26.0 °F 27.0 °F 80% 30.09 in 10.0 mi WNW 6.9 mph - N/A   Overcast
11:55 PM 32.4 °F 24.0 °F 26.8 °F 80% 30.10 in 10.0 mi NW 10.4 mph - N/A   Overcast